CW5557 Weather Reports


Display with metric or nautical units.
time (UTC)temp
F
wind
direction
speed
MPH
gust
MPH
rain 1hr
in
rain 24hr
in
rain mn
in
humidity
%
barometer
mb
20170530071710 64 102 3.0 6.0 0.00 0.06 0.00 94 1019.6
20170530064710 64 74 8.0 14.0 0.00 0.06 0.00 94 1019.4
20170530063710 64 48 9.0 14.0 0.00 0.06 0.00 94 1019.6
20170530061710 64 54 9.0 15.0 0.00 0.06 0.00 94 1019.6
20170530060710 64 58 9.0 13.0 0.00 0.06 0.00 94 1019.6
20170530054711 64 56 6.0 13.0 0.00 0.06 0.00 94 1020.0
20170530044710 64 71 5.0 7.0 0.00 0.18 0.00 94 1020.5
20170530043710 64 85 4.0 13.0 0.00 0.18 0.00 94 1020.5
20170530041710 64 61 6.0 12.0 0.00 0.18 0.00 94 1021.0
20170530040709 65 55 7.0 12.0 0.00 0.18 0.00 94 1021.0
20170530034710 65 82 4.0 7.0 0.00 0.18 0.18 94 1021.4
20170530033711 64 51 4.0 12.0 0.00 0.18 0.18 93 1021.4
20170530031710 65 61 7.0 12.0 0.00 0.18 0.18 94 1021.3
20170530030710 65 62 5.0 13.0 0.00 0.18 0.18 93 1021.3
20170530024710 65 131 1.0 7.0 0.00 0.18 0.18 93 1021.3
20170530023710 65 150 1.0 6.0 0.00 0.18 0.18 93 1021.3
20170530021710 65 128 2.0 6.0 0.00 0.18 0.18 93 1020.6
20170530020712 66 82 1.0 6.0 0.00 0.18 0.18 93 1020.6
20170530014710 66 146 1.0 2.0 0.00 0.18 0.18 93 1020.5
20170530013710 65 76 1.0 7.0 0.00 0.18 0.18 93 1020.5
20170530011710 66 55 2.0 3.0 0.00 0.18 0.18 93 1020.2
20170530010711 66 65 2.0 9.0 0.00 0.18 0.18 93 1020.3
20170530004710 65 42 5.0 8.0 0.00 0.18 0.18 93 1019.9
20170530003711 66 62 5.0 10.0 0.00 0.18 0.18 93 1020.0
20170529231710 67 102 3.0 7.0 0.00 0.18 0.18 93 1019.1
20170529230710 67 96 1.0 5.0 0.00 0.18 0.18 92 1018.3
20170529224710 68 74 5.0 12.0 0.00 0.18 0.18 92 1018.3
20170529223712 68 72 5.0 9.0 0.00 0.18 0.18 92 1018.3
20170529221710 69 83 4.0 7.0 0.03 0.18 0.18 91 1018.3
20170529220710 69 115 2.0 5.0 0.03 0.18 0.18 90 1017.9
20170529214710 71 130 3.0 12.0 0.03 0.18 0.18 89 1018.2
20170529213713 72 138 1.0 5.0 0.03 0.18 0.18 89 1018.0
20170529211710 71 186 1.0 5.0 0.00 0.15 0.15 88 1018.0
20170529210710 71 158 1.0 7.0 0.00 0.15 0.15 87 1017.9
20170529204711 73 195 1.0 5.0 0.00 0.15 0.15 86 1017.9
20170529203710 72 156 2.0 6.0 0.00 0.15 0.15 86 1018.0
20170529201711 73 130 0.0 9.0 0.00 0.15 0.15 83 1018.2
20170529200711 73 166 1.0 6.0 0.00 0.15 0.15 84 1018.2
20170529194710 72 143 2.0 3.0 0.00 0.15 0.15 86 1018.3
20170529193710 73 221 0.0 5.0 0.00 0.15 0.15 84 1018.7
20170529191710 74 231 3.0 7.0 0.00 0.15 0.15 81 1018.8
20170529190710 74 133 2.0 3.0 0.00 0.15 0.15 79 1019.1
20170529184710 72 149 2.0 3.0 0.00 0.15 0.15 83 1019.1
20170529183710 73 145 1.0 5.0 0.00 0.15 0.15 82 1019.6
20170529181710 72 183 2.0 6.0 0.00 0.15 0.15 83 1019.6
20170529180710 72 237 3.0 5.0 0.00 0.15 0.15 86 1019.7
20170529174712 72 158 3.0 6.0 0.00 0.15 0.15 84 1020.0
20170529173710 71 136 1.0 6.0 0.00 0.15 0.15 87 1020.0
20170529171710 71 164 1.0 5.0 0.00 0.15 0.15 89 1020.5
20170529170710 70 141 1.0 5.0 0.00 0.15 0.15 91 1020.5
20170529164710 69 196 1.0 5.0 0.00 0.15 0.15 90 1020.7
20170529163710 69 196 1.0 6.0 0.00 0.15 0.15 90 1020.7
20170529154713 69 208 1.0 3.0 0.00 0.15 0.15 91 1021.2
20170529153714 69 234 0.0 6.0 0.00 0.15 0.15 91 1021.3
20170529151714 68 154 3.0 6.0 0.00 0.15 0.15 92 1021.4
20170529150713 68 203 1.0 12.0 0.00 0.15 0.15 92 1021.4
20170529144713 68 208 1.0 7.0 0.00 0.15 0.15 92 1021.4
20170529143716 68 206 1.0 7.0 0.00 0.15 0.15 92 1021.3
20170529141714 68 159 1.0 5.0 0.00 0.15 0.15 92 1021.4
20170529140713 68 172 1.0 3.0 0.00 0.15 0.15 92 1021.3
20170529134713 68 200 1.0 3.0 0.00 0.15 0.15 93 1021.3
20170529133713 68 196 0.0 3.0 0.00 0.15 0.15 93 1021.1
20170529131714 67 144 1.0 3.0 0.00 0.15 0.15 94 1021.1
20170529130714 67 147 1.0 3.0 0.00 0.15 0.15 94 1021.1
20170529124714 66 126 0.0 5.0 0.00 0.15 0.15 94 1021.1
20170529123714 66 119 1.0 6.0 0.00 0.15 0.15 94 1020.9
20170529121714 65 107 2.0 6.0 0.00 0.15 0.15 94 1020.3
20170529120713 65 136 0.0 5.0 0.00 0.15 0.15 94 1020.3
20170529114714 64 50 3.0 6.0 0.00 0.15 0.15 94 1020.3
20170529113713 64 73 3.0 7.0 0.00 0.15 0.15 94 1020.3
20170529111714 64 63 5.0 9.0 0.00 0.15 0.15 94 1019.7
20170529110714 64 52 5.0 7.0 0.00 0.15 0.15 94 1019.7
20170529104713 64 55 5.0 6.0 0.00 0.15 0.15 94 1019.7
20170529101713 63 63 3.0 5.0 0.00 0.15 0.15 94 1019.7
20170529100714 63 26 2.0 3.0 0.00 0.15 0.15 94 1019.7
20170529094713 62 304 1.0 3.0 0.00 0.15 0.15 94 1019.5
20170529093713 63 304 0.0 3.0 0.00 0.15 0.15 94 1019.5
20170529090715 62 317 1.0 3.0 0.01 0.15 0.15 94 1018.9
20170529084714 63 318 1.0 3.0 0.01 0.15 0.15 94 1018.9
20170529081713 62 72 0.0 2.0 0.02 0.15 0.15 94 1019.1
20170529080713 62 72 2.0 6.0 0.02 0.15 0.15 94 1019.1
20170529074714 62 281 1.0 6.0 0.02 0.14 0.14 94 1019.1
20170529073714 64 212 2.0 6.0 0.02 0.14 0.14 94 1019.1